カタログに戻る

STARLINK-4622

運用中通信SSO
NORAD 53648·PAYLOAD·🇺🇸 United States

打ち上げ Aug 31, 2022 から Vandenberg Space Force Base

Loading…

次のパス (今後24時間)

TLE

最新Source: CelesTrak SupGP

元期: Sep 15, 2026, 02:10 UTC

1 53648C 22105A   26258.09076389  .00049342  00000+0  34254-2 0  2580
2 53648  97.2845 132.2254 0001861  91.0662  27.7099 15.05636196    19

AllMySatでSTARLINK-4622をリアルタイム追跡

Download on the App Store